STARLINK-11494 [DTC] (62272 NORAD) Tracking and Keplerian Element Data

This shows tracking and keplerian element data for the satellite.

Feedback or suggestion? Click here.




ElementValue
Catalog62272
NameSTARLINK-11494 [DTC]
Epoch Orbit1016
Epoch Day34.16062377
Epoch Year2025
RAAN305.1163
Inclination42.9988
Eccentricity0.0001526
Argument of Perigee260.0584
Mean Anonmoly100.0111
Mean Motion15.70842449
Decay Rate3.961E-05
L11 62272U 24237F 25034.16062377 .00003961 00000+0 34344-4 0 9993
L22 62272 42.9988 305.1163 0001526 260.0584 100.0111 15.70842449 10165



Live tracking and technical data element details for STARLINK-11494 [DTC] (NORAD 62272). STARLINK-11494 [DTC] can be tracked NOW for your location showing map with azimuth and elevation plus other details from your city location.







IsCatalogInMostPopularTable: catalog: 62272, numindb: 16
Update: records affected: 1



GetName: 62272 STARLINK-11494 [DTC]

Hit Count: updated at: Sun, 18 May 2025 23:44:05 GMT